{"data":{"norad_id":69017,"epoch":"2026-09-20T03:37:21.770688Z","epoch_age_seconds":48258,"freshness":"FRESH","line1":"1 69017U 26100AP  26263.15094642  .00002129  00000+0  87143-4 0  9992","line2":"2 69017  97.3441 159.4860 0003349 117.3521 242.8059 15.25397813 21271","mean_motion":15.25397813,"eccentricity":0.0003349,"inclination_deg":97.3441,"raan_deg":159.486,"arg_perigee_deg":117.3521,"mean_anomaly_deg":242.8059,"bstar":8.7143e-5,"rev_number":2127,"period_min":94.401603812972,"perigee_km":487.29113531481,"apogee_km":491.89113962129,"semimajor_km":6867.7281374681,"source":"CELESTRAK","updated_at":"2026-09-20T09:00:34.754654Z"}}